TimeMDT,TemperatureF,Dew PointF,Humidity,Sea Level PressureIn,VisibilityMPH,Wind Direction,Wind SpeedMPH,Gust SpeedMPH,PrecipitationIn,Events,Conditions,WindDirDegrees,DateUTC
12:53 AM,64.0,45.0,50,30.08,10.0,NNW,5.8,-,N/A,,Clear,330,2013-07-18 06:53:00
1:53 AM,68.0,43.0,40,30.08,10.0,Calm,Calm,-,N/A,,Clear,0,2013-07-18 07:53:00
2:53 AM,63.0,44.1,50,30.09,10.0,North,4.6,-,N/A,,Clear,10,2013-07-18 08:53:00
3:53 AM,60.1,45.0,57,30.10,10.0,Calm,Calm,-,N/A,,Clear,0,2013-07-18 09:53:00
4:53 AM,57.0,45.0,64,30.10,10.0,Calm,Calm,-,N/A,,Clear,0,2013-07-18 10:53:00
5:53 AM,55.0,45.0,69,30.12,10.0,Calm,Calm,-,N/A,,Clear,0,2013-07-18 11:53:00
6:53 AM,57.9,46.0,65,30.14,10.0,SE,3.5,-,N/A,,Clear,130,2013-07-18 12:53:00
7:53 AM,63.0,46.0,54,30.14,10.0,South,3.5,-,N/A,,Clear,180,2013-07-18 13:53:00
8:53 AM,66.0,46.9,50,30.15,10.0,Calm,Calm,-,N/A,,Clear,0,2013-07-18 14:53:00
9:53 AM,71.1,46.0,41,30.14,10.0,Variable,3.5,-,N/A,,Clear,0,2013-07-18 15:53:00
10:53 AM,75.0,46.9,37,30.13,10.0,Calm,Calm,-,N/A,,Clear,0,2013-07-18 16:53:00
11:53 AM,81.0,46.9,30,30.11,10.0,South,4.6,-,N/A,,Clear,190,2013-07-18 17:53:00
12:53 PM,86.0,37.0,18,30.09,10.0,NW,11.5,19.6,N/A,,Clear,320,2013-07-18 18:53:00
1:53 PM,89.1,37.0,16,30.06,10.0,NW,11.5,19.6,N/A,,Clear,320,2013-07-18 19:53:00
2:53 PM,91.0,37.0,15,30.04,10.0,NNW,13.8,-,N/A,,Clear,340,2013-07-18 20:53:00
3:53 PM,91.9,37.0,15,30.03,10.0,North,8.1,20.7,N/A,,Clear,350,2013-07-18 21:53:00
4:53 PM,91.9,27.0,10,30.01,10.0,West,15.0,-,N/A,,Clear,260,2013-07-18 22:53:00
5:00 PM,91.4,28.4,10,30.08,10.0,WSW,18.4,-,N/A,,Clear,250,2013-07-18 23:00:00
5:53 PM,91.9,27.0,10,30.01,10.0,WSW,15.0,-,N/A,,Clear,250,2013-07-18 23:53:00
6:53 PM,91.0,28.0,10,30.00,10.0,West,13.8,-,N/A,,Clear,260,2013-07-19 00:53:00
7:53 PM,88.0,28.9,12,30.00,10.0,West,10.4,-,N/A,,Clear,260,2013-07-19 01:53:00
8:53 PM,82.0,34.0,18,30.01,10.0,West,4.6,-,N/A,,Clear,280,2013-07-19 02:53:00
9:53 PM,75.0,39.9,28,30.04,10.0,NNW,6.9,-,N/A,,Clear,340,2013-07-19 03:53:00
10:53 PM,70.0,41.0,35,30.05,10.0,North,8.1,-,N/A,,Clear,350,2013-07-19 04:53:00
11:53 PM,66.9,39.0,36,30.06,10.0,WNW,4.6,-,N/A,,Clear,290,2013-07-19 05:53:00